Weather in Aqaba

Jordan     29°32′18″N   35°00′15″E
temp.,
°C
wind,
m/s
gust,
m/s
humid.,
%
clouds,
%
prec.,
mm/h
press.,
hPa
HPBL,
m
18 may, wed
wed1800:00+23n58440 0.0 1014216
03:00+21n45470 0.0 101476
06:00+20n45480 0.0 1013112
09:00+24n56340 0.0 1014520
12:00+29nnw67220 0.0 1012725
15:00+32n78140 0.0 1010860
18:00+31nne89150 0.0 1009927
21:00+27nne452259 0.0 101166
19 may, thu
thu1900:00+24n45360 0.0 101379
03:00+22n45410 0.0 101360
06:00+21n44420 0.0 101459
09:00+25nnw56330 0.0 1014486
12:00+30nnw66181 0.0 1013771
15:00+33n771147 0.0 10101078
18:00+32nne891326 0.0 10101088
21:00+27n8122258 0.0 1012326
20 may, fri
fri2000:00+24n57282 0.0 1014117
03:00+23n3431100 0.0 101334
06:00+22n343120 0.0 101334
09:00+27n441935 0.0 1013446
12:00+33nnw341197 0.0 10121446
15:00+35nnw65995 0.0 10091375
18:00+33n881143 0.0 10091089
21:00+29nne571758 0.0 101082
21 may, sat
sat2100:00+27nne4620100 0.0 101090
03:00+26nne4523100 0.0 101047
06:00+26ne4424100 0.0 101031
09:00+30ne341974 0.0 1010604
12:00+35nnw341326 0.0 10081610
15:00+35nnw22155 0.0 10071212
18:00+34nnw87151 0.0 10081231
21:00+29nne23255 0.0 101023
22 may, sun
sun2200:00+27n34345 0.0 101045
03:00+23nnw45520 0.0 1011164
06:00+20n35590 0.0 1012382
09:00+23n45450 0.0 1012734
12:00+27n56280 0.0 10111109
15:00+30nnw56170 0.0 10091665
18:00+30nw78140 0.0 10081828
21:00+26nw711240 0.0 1010355